This is the latest recevied weather packets stored in our database for station/object EA5JUX. If no packets are shown the sender has not sent any weather packets the latest 10 day(s).
| Time | Temp. | Humidity | Pressure | Rain* | Wind** | Luminosity | Snow |
|---|---|---|---|---|---|---|---|
| 1778146337 | 18.33° C | 78% | 1010.6 hPa | 0 mm | - | - | - |
| 1778146037 | 18.33° C | 80% | 1010.7 hPa | 0 mm | - | - | - |
| 1778145737 | 18.89° C | 79% | 1010.5 hPa | 0 mm | - | - | - |
| 1778145437 | 18.89° C | 78% | 1010.5 hPa | 0 mm | - | - | - |
| 1778145137 | 19.44° C | 78% | 1010.5 hPa | 0 mm | - | - | - |
| 1778144837 | 19.44° C | 76% | 1010.6 hPa | 0 mm | - | - | - |
| 1778144536 | 20° C | 75% | 1010.3 hPa | 0 mm | - | - | - |
| 1778144236 | 19.44° C | 78% | 1010.4 hPa | 0 mm | - | - | - |
| 1778143936 | 19.44° C | 78% | 1010.6 hPa | 0 mm | - | - | - |
| 1778143636 | 19.44° C | 79% | 1010.3 hPa | 0 mm | - | - | - |
| 1778143337 | 19.44° C | 79% | 1010.3 hPa | 0 mm | - | - | - |
| 1778143046 | 19.44° C | 79% | 1010.6 hPa | 0 mm | - | - | - |
| 1778142736 | 19.44° C | 79% | 1010.5 hPa | 0 mm | - | - | - |
| 1778142436 | 19.44° C | 79% | 1010.6 hPa | 0 mm | - | - | - |
| 1778142137 | 19.44° C | 80% | 1010.5 hPa | 0 mm | - | - | - |
| 1778141852 | 19.44° C | 79% | 1010.3 hPa | 0 mm | - | - | - |
| 1778141536 | 19.44° C | 79% | 1010.2 hPa | 0 mm | - | - | - |
| 1778141253 | 19.44° C | 78% | 1010.6 hPa | 0 mm | - | - | - |
| 1778140937 | 19.44° C | 79% | 1010.3 hPa | 0 mm | - | - | - |
| 1778140636 | 19.44° C | 80% | 1010.4 hPa | 0 mm | - | - | - |
| 1778140337 | 18.89° C | 80% | 1010.7 hPa | 0 mm | - | - | - |
| 1778140036 | 18.89° C | 80% | 1010.5 hPa | 0 mm | - | - | - |
| 1778139737 | 18.89° C | 79% | 1010.4 hPa | 0 mm | - | - | - |
| 1778139450 | 18.89° C | 79% | 1010.4 hPa | 0 mm | - | - | - |
| 1778139137 | 18.89° C | 79% | 1010.4 hPa | 0 mm | - | - | - |
* Rain latest hour (hover to see other rain measurements)
** Current wind speed in m/s (hover to see current wind gust speed)